IBE04LZ LESO-LEMD

Flight info

Callsign IBE04LZ
Flight time 0h 43m
Altitude 31000
Route PPN N857 BANEV
Aircraft A319/M-SDE3FGHIRWY/LB1

Departure

Time 2026-05-09 14:22
Airport San Sebastián Airport (LESO)

Arrival

Time 2026-05-09 15:06
Airport Adolfo Suárez Madrid–Barajas Airport (LEMD)
Time Latitude Longitude Altitude Speed Heading
2026-05-09 13:58 43.35703 -1.79165 17 ft 0 kts 39°
2026-05-09 14:17 43.35703 -1.79164 17 ft 0 kts 42°
2026-05-09 14:17 43.35702 -1.79159 17 ft 2 kts 85°
2026-05-09 14:17 43.35675 -1.79183 17 ft 8 kts 213°
2026-05-09 14:17 43.35650 -1.79177 18 ft 0 kts 135°
2026-05-09 14:18 43.35638 -1.79160 18 ft 7 kts 133°
2026-05-09 14:19 43.35647 -1.79064 18 ft 14 kts 39°
2026-05-09 14:19 43.35725 -1.78979 20 ft 15 kts 38°
2026-05-09 14:19 43.35803 -1.78894 19 ft 14 kts 39°
2026-05-09 14:19 43.35879 -1.78810 21 ft 14 kts 39°
2026-05-09 14:20 43.35957 -1.78724 21 ft 14 kts 38°
2026-05-09 14:20 43.36033 -1.78642 24 ft 14 kts 38°
2026-05-09 14:20 43.36110 -1.78557 23 ft 16 kts 39°
2026-05-09 14:21 43.36245 -1.78394 26 ft 2 kts 283°
2026-05-09 14:21 43.36227 -1.78427 24 ft 5 kts 219°
2026-05-09 14:21 43.36220 -1.78434 24 ft 0 kts 218°
2026-05-09 14:21 43.36203 -1.78453 25 ft 14 kts 218°
2026-05-09 14:22 43.35911 -1.78775 20 ft 92 kts 218°
2026-05-09 14:22 43.35237 -1.79510 41 ft 150 kts 217°
2026-05-09 14:22 43.34455 -1.80388 726 ft 142 kts 220°
2026-05-09 14:22 43.33786 -1.81404 1430 ft 144 kts 227°
2026-05-09 14:23 43.33107 -1.82466 1976 ft 156 kts 225°
2026-05-09 14:23 43.32334 -1.83655 2454 ft 177 kts 225°
2026-05-09 14:23 43.31487 -1.84973 2981 ft 191 kts 225°
2026-05-09 14:23 43.30548 -1.86409 3372 ft 212 kts 225°
2026-05-09 14:24 43.29498 -1.87997 3779 ft 237 kts 225°
2026-05-09 14:24 43.28338 -1.89772 4268 ft 262 kts 225°
2026-05-09 14:24 43.27087 -1.91686 5008 ft 274 kts 224°
2026-05-09 14:24 43.25536 -1.93197 5900 ft 276 kts 200°
2026-05-09 14:25 43.23669 -1.93697 6843 ft 275 kts 175°
2026-05-09 14:25 43.21826 -1.93079 7767 ft 275 kts 152°
2026-05-09 14:25 43.20165 -1.91751 8677 ft 278 kts 148°
2026-05-09 14:25 43.18505 -1.90372 9567 ft 281 kts 148°
2026-05-09 14:26 43.16810 -1.88964 10268 ft 294 kts 149°
2026-05-09 14:26 43.14995 -1.87461 10629 ft 314 kts 149°
2026-05-09 14:26 43.13090 -1.85892 11330 ft 322 kts 150°
2026-05-09 14:26 43.11162 -1.84305 12174 ft 325 kts 150°
2026-05-09 14:27 43.09219 -1.82707 12997 ft 327 kts 151°
2026-05-09 14:27 43.07262 -1.81103 13818 ft 329 kts 150°
2026-05-09 14:27 43.05294 -1.79492 14598 ft 332 kts 150°
2026-05-09 14:27 43.03306 -1.77869 15365 ft 334 kts 151°
2026-05-09 14:28 43.01192 -1.76552 16077 ft 335 kts 162°
2026-05-09 14:28 42.98913 -1.75843 16787 ft 337 kts 171°
2026-05-09 14:28 42.96585 -1.75337 17471 ft 340 kts 170°
2026-05-09 14:28 42.94241 -1.74819 18158 ft 342 kts 170°
2026-05-09 14:29 42.91881 -1.74293 18811 ft 345 kts 171°
2026-05-09 14:29 42.89502 -1.73764 19476 ft 348 kts 171°
2026-05-09 14:29 42.87104 -1.73235 20109 ft 350 kts 171°
2026-05-09 14:29 42.84688 -1.72703 20738 ft 353 kts 171°
2026-05-09 14:30 42.82254 -1.72168 21349 ft 356 kts 172°
2026-05-09 14:30 42.79808 -1.71631 21926 ft 358 kts 172°
2026-05-09 14:30 42.77336 -1.71088 22498 ft 361 kts 172°
2026-05-09 14:30 42.74830 -1.70863 23057 ft 362 kts 183°
2026-05-09 14:31 42.72334 -1.71338 23591 ft 364 kts 194°
2026-05-09 14:31 42.69948 -1.72511 24133 ft 367 kts 205°
2026-05-09 14:31 42.67663 -1.74065 24682 ft 368 kts 205°
2026-05-09 14:31 42.65368 -1.75613 25210 ft 369 kts 205°
2026-05-09 14:32 42.63058 -1.77161 25678 ft 371 kts 205°
2026-05-09 14:32 42.60736 -1.78714 26144 ft 373 kts 204°
2026-05-09 14:32 42.58401 -1.80275 26606 ft 375 kts 204°
2026-05-09 14:32 42.56055 -1.81845 27051 ft 377 kts 204°
2026-05-09 14:33 42.53700 -1.83423 27488 ft 379 kts 204°
2026-05-09 14:33 42.51335 -1.85009 27910 ft 380 kts 204°
2026-05-09 14:33 42.48958 -1.86603 28324 ft 382 kts 204°
2026-05-09 14:33 42.47374 -1.87662 28588 ft 383 kts 203°
2026-05-09 14:34 42.44981 -1.89259 28983 ft 385 kts 203°
2026-05-09 14:34 42.42571 -1.90864 29366 ft 387 kts 203°
2026-05-09 14:34 42.40150 -1.92476 29755 ft 388 kts 203°
2026-05-09 14:34 42.37721 -1.94091 30132 ft 390 kts 202°
2026-05-09 14:35 42.35282 -1.95712 30476 ft 392 kts 202°
2026-05-09 14:35 42.32830 -1.97343 30800 ft 393 kts 202°
2026-05-09 14:35 42.28020 -2.00565 30905 ft 371 kts 202°
2026-05-09 14:36 42.23492 -2.03586 30906 ft 358 kts 202°
2026-05-09 14:36 42.19026 -2.06521 30906 ft 357 kts 202°
2026-05-09 14:37 42.14556 -2.09459 30906 ft 357 kts 202°
2026-05-09 14:37 42.10096 -2.12400 30905 ft 357 kts 202°
2026-05-09 14:38 42.05641 -2.15343 30906 ft 357 kts 202°
2026-05-09 14:38 42.01187 -2.18286 30904 ft 356 kts 202°
2026-05-09 14:39 41.96733 -2.21206 30902 ft 356 kts 202°
2026-05-09 14:39 41.92279 -2.24113 30901 ft 356 kts 202°
2026-05-09 14:40 41.87826 -2.27024 30898 ft 356 kts 202°
2026-05-09 14:40 41.83372 -2.29933 30897 ft 356 kts 202°
2026-05-09 14:41 41.78921 -2.32843 30896 ft 356 kts 202°
2026-05-09 14:41 41.74471 -2.35752 30895 ft 356 kts 202°
2026-05-09 14:42 41.72228 -2.37211 30599 ft 361 kts 202°
2026-05-09 14:42 41.69968 -2.38680 30056 ft 359 kts 202°
2026-05-09 14:42 41.67735 -2.40137 29642 ft 355 kts 202°
2026-05-09 14:42 41.65534 -2.41570 29249 ft 349 kts 202°
2026-05-09 14:43 41.63361 -2.42980 28860 ft 345 kts 202°
2026-05-09 14:43 41.61185 -2.44388 28451 ft 342 kts 202°
2026-05-09 14:43 41.59056 -2.45767 28071 ft 338 kts 202°
2026-05-09 14:43 41.56975 -2.47114 27701 ft 335 kts 202°
2026-05-09 14:44 41.54888 -2.48464 27339 ft 331 kts 202°
2026-05-09 14:44 41.52790 -2.49820 26912 ft 330 kts 202°
2026-05-09 14:44 41.50730 -2.51154 26487 ft 328 kts 203°
2026-05-09 14:44 41.48686 -2.52477 26067 ft 325 kts 203°
2026-05-09 14:45 41.46655 -2.53785 25636 ft 323 kts 203°
2026-05-09 14:45 41.44640 -2.55085 25223 ft 320 kts 203°
2026-05-09 14:45 41.42668 -2.56359 24788 ft 318 kts 204°
2026-05-09 14:45 41.40680 -2.57643 24351 ft 316 kts 204°
2026-05-09 14:46 41.38711 -2.58906 23900 ft 314 kts 204°
2026-05-09 14:46 41.36750 -2.60159 23451 ft 312 kts 204°
2026-05-09 14:46 41.34801 -2.61402 23014 ft 310 kts 204°
2026-05-09 14:46 41.32938 -2.62836 22571 ft 311 kts 214°
2026-05-09 14:47 41.31365 -2.64821 22126 ft 314 kts 227°
2026-05-09 14:47 41.30081 -2.67182 21681 ft 315 kts 230°
2026-05-09 14:47 41.28815 -2.69551 21236 ft 315 kts 230°
2026-05-09 14:47 41.27537 -2.71915 20789 ft 314 kts 230°
2026-05-09 14:48 41.26266 -2.74254 20349 ft 314 kts 230°
2026-05-09 14:48 41.24979 -2.76620 19911 ft 314 kts 230°
2026-05-09 14:48 41.23701 -2.78973 19474 ft 314 kts 230°
2026-05-09 14:48 41.22428 -2.81314 19213 ft 308 kts 230°
2026-05-09 14:49 41.21198 -2.83584 19082 ft 298 kts 230°
2026-05-09 14:49 41.20007 -2.85778 18957 ft 289 kts 230°
2026-05-09 14:49 41.18850 -2.87905 18821 ft 280 kts 230°
2026-05-09 14:49 41.17715 -2.89986 18474 ft 277 kts 230°
2026-05-09 14:50 41.16590 -2.92046 18053 ft 276 kts 230°
2026-05-09 14:50 41.15467 -2.94101 17642 ft 274 kts 231°
2026-05-09 14:50 41.14354 -2.96140 17229 ft 272 kts 231°
2026-05-09 14:50 41.13247 -2.98166 16734 ft 270 kts 231°
2026-05-09 14:51 41.12139 -3.00182 16258 ft 268 kts 231°
2026-05-09 14:51 41.11052 -3.02164 15841 ft 264 kts 230°
2026-05-09 14:51 41.09972 -3.04129 15463 ft 262 kts 231°
2026-05-09 14:51 41.08900 -3.06069 15080 ft 264 kts 231°
2026-05-09 14:52 41.07812 -3.08054 14782 ft 264 kts 231°
2026-05-09 14:52 41.06728 -3.10030 14477 ft 263 kts 231°
2026-05-09 14:52 41.05658 -3.11985 14219 ft 262 kts 231°
2026-05-09 14:52 41.04589 -3.13929 13898 ft 261 kts 231°
2026-05-09 14:53 41.03518 -3.15868 13508 ft 260 kts 231°
2026-05-09 14:53 41.02453 -3.17801 13122 ft 259 kts 231°
2026-05-09 14:53 41.01398 -3.19721 12649 ft 258 kts 231°
2026-05-09 14:53 41.00344 -3.21640 12170 ft 256 kts 231°
2026-05-09 14:54 40.99305 -3.23529 11774 ft 252 kts 231°
2026-05-09 14:54 40.98260 -3.25422 11399 ft 250 kts 231°
2026-05-09 14:54 40.97242 -3.27268 11052 ft 253 kts 231°
2026-05-09 14:54 40.96200 -3.29153 10672 ft 254 kts 231°
2026-05-09 14:55 40.95159 -3.31036 10300 ft 254 kts 231°
2026-05-09 14:55 40.94114 -3.32926 9978 ft 255 kts 231°
2026-05-09 14:55 40.93069 -3.34812 9659 ft 254 kts 231°
2026-05-09 14:55 40.92100 -3.36779 9364 ft 257 kts 243°
2026-05-09 14:56 40.91710 -3.39073 9076 ft 260 kts 266°
2026-05-09 14:56 40.91975 -3.41450 8745 ft 264 kts 280°
2026-05-09 14:56 40.92364 -3.43853 8407 ft 263 kts 277°
2026-05-09 14:56 40.92408 -3.46240 8137 ft 256 kts 259°
2026-05-09 14:57 40.92101 -3.48526 8025 ft 251 kts 255°
2026-05-09 14:57 40.91518 -3.50665 8022 ft 246 kts 237°
2026-05-09 14:57 40.90479 -3.52427 7938 ft 243 kts 219°
2026-05-09 14:57 40.89112 -3.53695 7677 ft 237 kts 208°
2026-05-09 14:58 40.87697 -3.54832 7572 ft 238 kts 208°
2026-05-09 14:58 40.86323 -3.55948 7480 ft 232 kts 209°
2026-05-09 14:58 40.84976 -3.57038 7397 ft 222 kts 206°
2026-05-09 14:58 40.83532 -3.57638 7327 ft 216 kts 183°
2026-05-09 14:59 40.82038 -3.57644 7260 ft 216 kts 178°
2026-05-09 14:59 40.80546 -3.57638 7184 ft 211 kts 179°
2026-05-09 14:59 40.79089 -3.57634 7102 ft 211 kts 178°
2026-05-09 14:59 40.77626 -3.57626 6884 ft 210 kts 178°
2026-05-09 15:00 40.76180 -3.57618 6626 ft 210 kts 178°
2026-05-09 15:00 40.74713 -3.57609 6345 ft 211 kts 178°
2026-05-09 15:00 40.73244 -3.57601 6062 ft 210 kts 178°
2026-05-09 15:00 40.71778 -3.57592 5785 ft 210 kts 178°
2026-05-09 15:01 40.68843 -3.57575 5223 ft 209 kts 178°
2026-05-09 15:01 40.67406 -3.57567 4946 ft 209 kts 178°
2026-05-09 15:01 40.65947 -3.57558 4664 ft 209 kts 179°
2026-05-09 15:02 40.64506 -3.57550 4388 ft 204 kts 178°
2026-05-09 15:02 40.63089 -3.57542 4161 ft 198 kts 179°
2026-05-09 15:02 40.61718 -3.57535 3860 ft 195 kts 178°
2026-05-09 15:02 40.60405 -3.57527 3608 ft 185 kts 179°
2026-05-09 15:03 40.59145 -3.57520 3370 ft 178 kts 179°
2026-05-09 15:03 40.57943 -3.57513 3132 ft 168 kts 179°
2026-05-09 15:03 40.56815 -3.57507 2916 ft 158 kts 178°
2026-05-09 15:03 40.55739 -3.57500 2712 ft 152 kts 178°
2026-05-09 15:04 40.54694 -3.57485 2495 ft 149 kts 178°
2026-05-09 15:04 40.53664 -3.57476 2290 ft 147 kts 179°
2026-05-09 15:06 40.50024 -3.57687 1986 ft 21 kts 180°
2026-05-09 15:06 40.49878 -3.57688 1986 ft 21 kts 181°
2026-05-09 15:06 40.49742 -3.57701 1988 ft 15 kts 220°
2026-05-09 15:06 40.49736 -3.57747 1991 ft 3 kts 274°
2026-05-09 15:07 40.49736 -3.57842 1995 ft 13 kts 269°
2026-05-09 15:07 40.49735 -3.57943 1999 ft 10 kts 269°
2026-05-09 15:07 40.49735 -3.58023 2001 ft 9 kts 270°
2026-05-09 15:07 40.49735 -3.58117 2005 ft 12 kts 270°
2026-05-09 15:08 40.49735 -3.58261 2008 ft 20 kts 269°
2026-05-09 15:08 40.49732 -3.58571 2027 ft 14 kts 269°
2026-05-09 15:08 40.49733 -3.58692 2026 ft 13 kts 272°
2026-05-09 15:09 40.49741 -3.58817 2028 ft 14 kts 282°
2026-05-09 15:10 40.49558 -3.59218 2022 ft 5 kts 181°
2026-05-09 15:11 40.49530 -3.59209 2029 ft 4 kts 131°
2026-05-09 15:11 40.49525 -3.59170 2022 ft 5 kts 96°
2026-05-09 15:11 40.49525 -3.59161 2022 ft 0 kts 90°